2022-08-08 00:05:56 r, 21.04m,0000000000Hz,0001394393c,0000003.026s, 025.1C,00002191
2022-08-08 00:15:55 r, 21.03m,0000000000Hz,0001390308c,0000003.017s, 025.1C,00002191
2022-08-08 00:25:58 r, 21.02m,0000000001Hz,0001382773c,0000003.001s, 025.1C,00002191
2022-08-08 00:35:56 r, 21.13m,0000000000Hz,0001515819c,0000003.290s, 025.1C,00002191
2022-08-08 00:45:55 r, 21.20m,0000000000Hz,0001617360c,0000003.510s, 025.1C,00002191
2022-08-08 00:55:56 r, 21.15m,0000000001Hz,0001549638c,0000003.363s, 025.1C,00002191
2022-08-08 01:05:58 r, 21.19m,0000000000Hz,0001599178c,0000003.470s, 025.1C,00002191
2022-08-08 01:15:55 r, 21.29m,0000000000Hz,0001768019c,0000003.837s, 025.1C,00002191
2022-08-08 01:25:55 r, 21.40m,0000000001Hz,0001938048c,0000004.206s, 024.8C,00002191
2022-08-08 01:35:58 r, 21.40m,0000000000Hz,0001938477c,0000004.207s, 024.8C,00002191
2022-08-08 01:45:55 r, 21.47m,0000000001Hz,0002060974c,0000004.473s, 024.8C,00002191
2022-08-08 01:55:58 r, 21.47m,0000000000Hz,0002079469c,0000004.513s, 024.8C,00002191
2022-08-08 02:05:56 r, 21.50m,0000000000Hz,0002121349c,0000004.604s, 024.8C,00002191
2022-08-08 02:15:55 r, 21.47m,0000000000Hz,0002072992c,0000004.499s, 024.8C,00002191
2022-08-08 02:25:58 r, 21.38m,0000000000Hz,0001895254c,0000004.113s, 024.8C,00002191
2022-08-08 02:35:56 r, 21.15m,0000000000Hz,0001549346c,0000003.362s, 024.8C,00002191
2022-08-08 02:45:55 r, 20.97m,0000000001Hz,0001312100c,0000002.847s, 024.8C,00002191
2022-08-08 02:55:56 r, 21.06m,0000000000Hz,0001419871c,0000003.081s, 024.8C,00002191
2022-08-08 03:05:57 r, 21.37m,0000000000Hz,0001879918c,0000004.080s, 024.8C,00002191
2022-08-08 03:15:55 r, 21.47m,0000000000Hz,0002074784c,0000004.503s, 024.8C,00002191
2022-08-08 03:25:55 r, 21.58m,0000000000Hz,0002290072c,0000004.970s, 024.4C,00002191
2022-08-08 03:35:58 r, 21.52m,0000000000Hz,0002172572c,0000004.715s, 024.4C,00002191
2022-08-08 03:45:55 r, 21.40m,0000000000Hz,0001938617c,0000004.207s, 024.4C,00002191
2022-08-08 03:55:55 r, 21.36m,0000000000Hz,0001860642c,0000004.038s, 024.8C,00002191
2022-08-08 04:05:58 r, 21.38m,0000000001Hz,0001892599c,0000004.107s, 024.8C,00002191
2022-08-08 04:15:55 r, 21.39m,0000000000Hz,0001920243c,0000004.167s, 024.8C,00002191
2022-08-08 04:25:55 r, 21.50m,0000000001Hz,0002127825c,0000004.618s, 024.8C,00002191
2022-08-08 04:35:56 r, 21.19m,0000000000Hz,0001611562c,0000003.497s, 024.8C,00002191
2022-08-08 04:45:55 r, 20.53m,0000000001Hz,0000883809c,0000001.918s, 024.8C,00002191
2022-08-08 04:55:58 r, 19.54m,0000000001Hz,0000358070c,0000000.777s, 024.4C,00002191
2022-08-08 05:05:56 r, 18.34m,0000000004Hz,0000119235c,0000000.259s, 024.4C,00002191
2022-08-08 05:15:55 r, 16.99m,0000000013Hz,0000034370c,0000000.075s, 024.1C,00002191
2022-08-08 05:25:56 r, 15.34m,0000000061Hz,0000007468c,0000000.016s, 024.1C,00002191
2022-08-08 05:35:58 r, 13.54m,0000000324Hz,0000000000c,0000000.000s, 023.8C,00002191
2022-08-08 05:45:55 r, 11.82m,0000001589Hz,0000000000c,0000000.000s, 023.8C,00002191
2022-08-08 05:55:57 r, 10.33m,0000006231Hz,0000000000c,0000000.000s, 023.8C,00002191
2022-08-08 06:05:56 r, 09.11m,0000019253Hz,0000000000c,0000000.000s, 023.8C,00002191
2022-08-08 06:15:55 r, 08.19m,0000044787Hz,0000000000c,0000000.000s, 024.1C,00002191
2022-08-08 06:25:58 r, 07.65m,0000073935Hz,0000000000c,0000000.000s, 024.1C,00002191
2022-08-08 06:35:56 r, 07.21m,0000110786Hz,0000000000c,0000000.000s, 024.1C,00002191
2022-08-08 06:45:55 r, 06.44m,0000224264Hz,0000000000c,0000000.000s, 024.4C,00002191
2022-08-08 06:55:58 r, 05.96m,0000348540Hz,0000000000c,0000000.000s, 024.8C,00002191
2022-08-08 07:05:56 r, 00.00m,0000417775Hz,0000000000c,0000000.000s, 025.7C,00002191
2022-08-08 07:15:55 r, 00.00m,0000466844Hz,0000000000c,0000000.000s, 026.7C,00002191
2022-08-08 07:25:56 r, 00.00m,0000546228Hz,0000000000c,0000000.000s, 027.7C,00002191
2022-08-08 07:35:57 r, 00.00m,0000596466Hz,0000000000c,0000000.000s, 029.0C,00002191
2022-08-08 07:45:55 r, 00.00m,0000596433Hz,0000000000c,0000000.000s, 030.2C,00002191
2022-08-08 07:55:57 r, 00.00m,0000596348Hz,0000000000c,0000000.000s, 030.6C,00002191
2022-08-08 08:05:56 r, 00.00m,0000596410Hz,0000000000c,0000000.000s, 030.2C,00002191
2022-08-08 08:15:55 r, 00.00m,0000596446Hz,0000000000c,0000000.000s, 029.9C,00002191
2022-08-08 08:25:56 r, 00.00m,0000596300Hz,0000000000c,0000000.000s, 030.9C,00002191
2022-08-08 08:35:58 r, 00.00m,0000596103Hz,0000000000c,0000000.000s, 031.9C,00002191
2022-08-08 08:45:55 r, 00.00m,0000596033Hz,0000000000c,0000000.000s, 032.5C,00002191
2022-08-08 08:55:58 r, 00.00m,0000595945Hz,0000000000c,0000000.000s, 033.5C,00002191
2022-08-08 09:05:56 r, 00.00m,0000595704Hz,0000000000c,0000000.000s, 035.1C,00002191
2022-08-08 09:15:55 r, 00.00m,0000595432Hz,0000000000c,0000000.000s, 036.7C,00002191
2022-08-08 09:25:58 r, 00.00m,0000595319Hz,0000000000c,0000000.000s, 037.7C,00002191
2022-08-08 09:35:56 r, 00.00m,0000595213Hz,0000000000c,0000000.000s, 038.6C,00002191
2022-08-08 09:45:55 r, 00.00m,0000595280Hz,0000000000c,0000000.000s, 038.3C,00002191
2022-08-08 09:55:55 r, 00.00m,0000595355Hz,0000000000c,0000000.000s, 037.7C,00002191
2022-08-08 10:05:58 r, 00.00m,0000595563Hz,0000000000c,0000000.000s, 037.0C,00002191
2022-08-08 10:15:55 r, 00.00m,0000595647Hz,0000000000c,0000000.000s, 036.0C,00002191
2022-08-08 10:25:56 r, 00.00m,0000595655Hz,0000000000c,0000000.000s, 036.4C,00002191
2022-08-08 10:35:58 r, 00.00m,0000595375Hz,0000000000c,0000000.000s, 037.7C,00002191
2022-08-08 10:45:55 r, 00.00m,0000595269Hz,0000000000c,0000000.000s, 038.6C,00002191
2022-08-08 10:55:56 r, 00.00m,0000595166Hz,0000000000c,0000000.000s, 039.6C,00002191
2022-08-08 11:05:56 r, 00.00m,0000594967Hz,0000000000c,0000000.000s, 040.9C,00002191
2022-08-08 11:15:56 r, 00.00m,0000594687Hz,0000000000c,0000000.000s, 042.8C,00002191
2022-08-08 11:25:56 r, 00.00m,0000594746Hz,0000000000c,0000000.000s, 043.1C,00002191
2022-08-08 11:35:56 r, 00.00m,0000594842Hz,0000000000c,0000000.000s, 041.2C,00002191
2022-08-08 11:45:56 r, 00.00m,0000595503Hz,0000000000c,0000000.000s, 038.3C,00002191
2022-08-08 11:55:56 r, 00.00m,0000595542Hz,0000000000c,0000000.000s, 037.3C,00002191
2022-08-08 12:05:57 r, 00.00m,0000595634Hz,0000000000c,0000000.000s, 036.7C,00002191
2022-08-08 12:15:56 r, 00.00m,0000595651Hz,0000000000c,0000000.000s, 036.7C,00002191
2022-08-08 12:25:56 r, 00.00m,0000595708Hz,0000000000c,0000000.000s, 036.7C,00002191
2022-08-08 12:35:58 r, 00.00m,0000595620Hz,0000000000c,0000000.000s, 036.7C,00002191
2022-08-08 12:45:56 r, 00.00m,0000595587Hz,0000000000c,0000000.000s, 037.3C,00002191
2022-08-08 12:55:56 r, 00.00m,0000595511Hz,0000000000c,0000000.000s, 037.7C,00002191
2022-08-08 13:05:58 r, 00.00m,0000595573Hz,0000000000c,0000000.000s, 037.7C,00002191
2022-08-08 13:15:56 r, 00.00m,0000595492Hz,0000000000c,0000000.000s, 037.7C,00002191
2022-08-08 13:25:56 r, 00.00m,0000595379Hz,0000000000c,0000000.000s, 038.3C,00002191
2022-08-08 13:35:56 r, 00.00m,0000595012Hz,0000000000c,0000000.000s, 040.9C,00002191
2022-08-08 13:45:56 r, 00.00m,0000594363Hz,0000000000c,0000000.000s, 044.4C,00002191
2022-08-08 13:55:56 r, 00.00m,0000594150Hz,0000000000c,0000000.000s, 046.7C,00002191
2022-08-08 14:05:57 r, 00.00m,0000594024Hz,0000000000c,0000000.000s, 047.3C,00002191
2022-08-08 14:15:56 r, 00.00m,0000594051Hz,0000000000c,0000000.000s, 047.3C,00002191
2022-08-08 14:25:56 r, 00.00m,0000594128Hz,0000000000c,0000000.000s, 047.0C,00002191
2022-08-08 14:35:58 r, 00.00m,0000594015Hz,0000000000c,0000000.000s, 047.3C,00002191
2022-08-08 14:45:56 r, 00.00m,0000593940Hz,0000000000c,0000000.000s, 048.0C,00002191
2022-08-08 14:55:56 r, 00.00m,0000593882Hz,0000000000c,0000000.000s, 048.6C,00002191
2022-08-08 15:05:58 r, 00.00m,0000593769Hz,0000000000c,0000000.000s, 048.9C,00002191
2022-08-08 15:15:56 r, 00.00m,0000593716Hz,0000000000c,0000000.000s, 048.9C,00002191
2022-08-08 15:25:56 r, 00.00m,0000593716Hz,0000000000c,0000000.000s, 048.9C,00002191
2022-08-08 15:35:56 r, 00.00m,0000593637Hz,0000000000c,0000000.000s, 049.3C,00002191
2022-08-08 15:45:57 r, 00.00m,0000593595Hz,0000000000c,0000000.000s, 049.6C,00002191
2022-08-08 15:55:56 r, 00.00m,0000593722Hz,0000000000c,0000000.000s, 049.3C,00002191
2022-08-08 16:05:57 r, 00.00m,0000593670Hz,0000000000c,0000000.000s, 049.6C,00002191
2022-08-08 16:15:57 r, 00.00m,0000593643Hz,0000000000c,0000000.000s, 049.3C,00002191
2022-08-08 16:25:56 r, 00.00m,0000593495Hz,0000000000c,0000000.000s, 050.2C,00002191
2022-08-08 16:35:58 r, 00.00m,0000593482Hz,0000000000c,0000000.000s, 050.6C,00002191
2022-08-08 16:45:57 r, 00.00m,0000593606Hz,0000000000c,0000000.000s, 049.6C,00002191
2022-08-08 16:55:56 r, 00.00m,0000593793Hz,0000000000c,0000000.000s, 048.9C,00002191
2022-08-08 17:05:58 r, 00.00m,0000593947Hz,0000000000c,0000000.000s, 047.7C,00002191
2022-08-08 17:15:57 r, 00.00m,0000594096Hz,0000000000c,0000000.000s, 047.0C,00002191
2022-08-08 17:25:56 r, 00.00m,0000594192Hz,0000000000c,0000000.000s, 046.4C,00002191
2022-08-08 17:35:57 r, 00.00m,0000594254Hz,0000000000c,0000000.000s, 045.7C,00002191
2022-08-08 17:45:57 r, 00.00m,0000594370Hz,0000000000c,0000000.000s, 045.1C,00002191
2022-08-08 17:55:56 r, 00.00m,0000594380Hz,0000000000c,0000000.000s, 045.1C,00002191
2022-08-08 18:05:57 r, 00.00m,0000594514Hz,0000000000c,0000000.000s, 044.4C,00002191
2022-08-08 18:15:57 r, 00.00m,0000594503Hz,0000000000c,0000000.000s, 044.1C,00002191
2022-08-08 18:25:56 r, 00.00m,0000594557Hz,0000000000c,0000000.000s, 044.1C,00002191
2022-08-08 18:35:58 r, 00.00m,0000594535Hz,0000000000c,0000000.000s, 044.1C,00002191
2022-08-08 18:45:57 r, 00.00m,0000594483Hz,0000000000c,0000000.000s, 044.4C,00002191
2022-08-08 18:55:56 r, 00.00m,0000594530Hz,0000000000c,0000000.000s, 043.8C,00002191
2022-08-08 19:05:58 r, 00.00m,0000594669Hz,0000000000c,0000000.000s, 043.5C,00002191
2022-08-08 19:15:57 r, 00.00m,0000594791Hz,0000000000c,0000000.000s, 042.8C,00002191
2022-08-08 19:25:56 r, 00.00m,0000585467Hz,0000000000c,0000000.000s, 042.5C,00002191
2022-08-08 19:35:57 r, 00.00m,0000536181Hz,0000000000c,0000000.000s, 042.2C,00002191
2022-08-08 19:45:57 r, 00.00m,0000450989Hz,0000000000c,0000000.000s, 041.5C,00002191
2022-08-08 19:55:56 r, 05.83m,0000394119Hz,0000000000c,0000000.000s, 041.5C,00002191
2022-08-08 20:05:56 r, 06.01m,0000334655Hz,0000000000c,0000000.000s, 040.9C,00002191
2022-08-08 20:15:58 r, 06.25m,0000266260Hz,0000000000c,0000000.000s, 040.2C,00002191
2022-08-08 20:25:56 r, 06.81m,0000160134Hz,0000000000c,0000000.000s, 039.3C,00002191
2022-08-08 20:35:57 r, 06.98m,0000136441Hz,0000000000c,0000000.000s, 038.3C,00002191
2022-08-08 20:45:57 r, 07.60m,0000077747Hz,0000000000c,0000000.000s, 037.3C,00002191
2022-08-08 20:55:56 r, 08.54m,0000032406Hz,0000000000c,0000000.000s, 036.7C,00002191
2022-08-08 21:05:59 r, 09.53m,0000013116Hz,0000000000c,0000000.000s, 036.0C,00002191
2022-08-08 21:15:57 r, 10.87m,0000003776Hz,0000000000c,0000000.000s, 035.1C,00002191
2022-08-08 21:25:56 r, 12.50m,0000000844Hz,0000000000c,0000000.000s, 034.8C,00002191
2022-08-08 21:35:57 r, 14.41m,0000000146Hz,0000000000c,0000000.000s, 034.1C,00002191
2022-08-08 21:45:58 r, 16.16m,0000000029Hz,0000015978c,0000000.035s, 034.1C,00002191
2022-08-08 21:55:56 r, 17.64m,0000000007Hz,0000062368c,0000000.135s, 033.8C,00002191
2022-08-08 22:05:56 r, 18.85m,0000000003Hz,0000188301c,0000000.409s, 033.5C,00002191
2022-08-08 22:15:59 r, 19.70m,0000000001Hz,0000410826c,0000000.892s, 033.1C,00002191
2022-08-08 22:25:56 r, 20.18m,0000000001Hz,0000635631c,0000001.379s, 033.1C,00002191
2022-08-08 22:35:58 r, 20.41m,0000000000Hz,0000792914c,0000001.721s, 032.8C,00002191
2022-08-08 22:45:57 r, 20.51m,0000000001Hz,0000866830c,0000001.881s, 032.5C,00002191
2022-08-08 22:55:56 r, 20.60m,0000000001Hz,0000943662c,0000002.048s, 032.5C,00002191
2022-08-08 23:05:59 r, 20.60m,0000000001Hz,0000940313c,0000002.041s, 032.5C,00002191
2022-08-08 23:15:57 r, 20.64m,0000000001Hz,0000973339c,0000002.112s, 032.2C,00002191
2022-08-08 23:25:56 r, 20.61m,0000000001Hz,0000947966c,0000002.057s, 032.2C,00002191
2022-08-08 23:35:59 r, 20.55m,0000000000Hz,0000895875c,0000001.944s, 032.2C,00002191
2022-08-08 23:45:57 r, 20.66m,0000000000Hz,0000991687c,0000002.152s, 031.9C,00002191
2022-08-08 23:55:56 r, 20.56m,0000000000Hz,0000905814c,0000001.966s, 031.9C,00002191
